AirNav   Duncan Aviation - Near you to keep you flying
 
 1666 users online  

SC90 Do-Little Field Airport
St Matthews, South Carolina, USA

GOING TO ST MATTHEWS?


FAA INFORMATION EFFECTIVE 21 APRIL 2022

Location

FAA Identifier: SC90
Lat/Long: 33-40-35.7300N 080-56-53.3300W
33-40.595500N 080-56.888833W
33.6765917,-80.9481472
(estimated)
Elevation: 369 ft. / 112 m (estimated)
Variation: 05W (1990)
From city: 9 miles W of ST. MATTHEWS, SC
Time zone: UTC -4 (UTC -5 during Standard Time)
Zip code: 29135

Airport Operations

Airport use: Private use. Permission required prior to landing
Activation date: 06/1993
Control tower: no
ARTCC: JACKSONVILLE CENTER
FSS: ANDERSON FLIGHT SERVICE STATION
Attendance: UNATNDD
Wind indicator: yes
Segmented circle: no

Airport Communications

WX ASOS at OGB (14 nm S): 118.525 (803-536-3901)
WX ASOS at CUB (18 nm N): 118.675 (803-929-0665)
WX ASOS at CAE (18 nm NW): 120.15 (803-822-4168)

Nearby radio navigation aids

VOR radial/distance  VOR name  Freq  Var
CAEr156/12.1COLUMBIA VORTAC114.7002W
MMTr214/16.5MC ENTIRE VORTAC113.2008W
VANr302/27.7VANCE VORTAC110.4006W

 
NDB name  Hdg/Dist  Freq  Var  ID
SUMTER244/34.925207WSMS ... -- ...
AIKEN094/36.434706WAIK .- .. -.-
MANNING284/37.438106WMNI -- -. ..

Airport Services

Runway Information

Runway 14/32

Dimensions: 3200 x 100 ft. / 975 x 30 m
Surface: turf
RUNWAY 14  RUNWAY 32
Traffic pattern: leftright

Airport Ownership and Management from official FAA records

Ownership: Privately-owned
Owner: DO-LITTLE FIELD INC
160 DO LITTLE LANE
ST MATTHEWS, SC 29135
Phone 803-874-4281
Manager: BILL MITCHELL
35 DOOLITTLE LN
ST MATTHEWS, SC 29135
Phone 803-874-1310

Airport Operational Statistics

Aircraft based on the field: 9
Single engine airplanes: 9
    

Additional Remarks

FOR CD CTC COLUMBIA APCH AT 803-822-5242 OR 803-822-5040.

Instrument Procedures

There are no published instrument procedures at SC90.

Some nearby airports with instrument procedures:

KXNO - North Air Force Auxiliary Field (8 nm SW)
KOGB - Orangeburg Municipal Airport (14 nm S)
KMMT - Mc Entire Joint National Guard Base (16 nm NE)
6J0 - Lexington County Airport (16 nm NW)
KCUB - Jim Hamilton L B Owens Airport (18 nm N)
KCAE - Columbia Metro Airport (18 nm NW)
 
Loc | Ops | Rwys | IFR | FBO | Links
Com | Nav | Svcs | Stats | Notes
Area around SC90 (Do-Little Field Airport)
 
Road maps at: MapQuest Bing Google
 
Aerial photo
WARNING: Photo may not be current or correct
Aerial photo of SC90 (Do-Little Field Airport)
Photo by Eddie Price
Photo taken 10-Nov-2012
looking west.

Do you have a better or more recent aerial photo of Do-Little Field Airport that you would like to share? If so, please send us your photo.

 
Sectional chart

 
Airport distance calculator
Flying to Do-Little Field Airport? Find the distance to fly.

From to SC90

Sunrise and sunset
Times for 17-May-2022
 Local
(UTC-4)
 Zulu
(UTC)
Morning civil twilight05:5509:55
Sunrise06:2310:23
Sunset20:1800:18
Evening civil twilight20:4500:45

Current date and time
Zulu (UTC)  17-May-2022 20:35:51
Local (UTC-4)  17-May-2022 16:35:51
 
METAR
KXNO 
8nm SW 
171956Z AUTO 21003KT 10SM CLR 30/07 A2997 RMK AO2 SLP149 T03020068 $
KOGB 
14nm S 
171953Z AUTO 10SM CLR 30/11 A2996 RMK AO2 SLP143 T03000106
KMMT 
17nm NE 
171956Z 28006KT 10SM CLR 31/09 A2994 RMK AO2A SLP139 T03050088 $
KCAE 
18nm NW 
171956Z 28008KT 10SM FEW060 29/09 A2996 RMK AO2 SLP143 T02940094
KCUB 
18nm N 
171953Z AUTO VRB06KT 10SM CLR 29/08 A2997 RMK AO2 SLP144 T02940083
TAF
KOGB 
14nm S 
171733Z 1718/1818 VRB05KT P6SM SKC FM180100 VRB03KT P6SM SKC FM181500 22007KT P6SM SCT040
KMMT 
17nm NE 
171630Z 1716/1821 03009KT 9999 FEW250 QNH2998INS BECMG 1723/1724 VRB06KT 9999 SKC QNH2998INS BECMG 1820/1821 VRB06KT 9999 SKC QNH2997INS TX29/1815Z TN15/1810Z
KCAE 
18nm NW 
171733Z 1718/1818 33006KT P6SM SKC FM180100 VRB03KT P6SM SKC FM181500 22007KT P6SM SCT040
KCUB 
18nm N 
171733Z 1718/1818 33006KT P6SM SKC FM180100 VRB03KT P6SM SKC FM181500 22006KT P6SM SCT040
NOTAMs
Click for the latest NOTAMs
NOTAMs are issued by the DoD/FAA and will open in a separate window not controlled by AirNav.

 

 
 

Would you like to see your business listed on this page?

 If your business provides an interesting product or service to pilots, flight crews, aircraft, or users of the Do-Little Field Airport, you should consider listing it here.  To start the listing process, click on the button below
 
Add a business
 

Other Pages about Do-Little Field Airport

Update a link
 
Copyright © AirNav, LLC. All rights reserved. Privacy Policy  Contact